Wetterdaten: Sonntag, 28.02.2016
Datum Zeit Temp. I. Temp. A. Boden 5 cm Feuchte A. Sonne Luftdruck Regen Wind Sonnenschein
28.02.2016 00:02 22,1 C -0,5 C 1,2 C 70 % 0 % 1009 hPa 0,0 l/m 0,0 km/h (0 Bft) 0 min
28.02.2016 00:05 22,1 C -0,5 C 1,2 C 70 % 0 % 1009 hPa 0,0 l/m 0,0 km/h (0 Bft) 0 min
28.02.2016 00:08 22,1 C -0,5 C 0,9 C 70 % 0 % 1009 hPa 0,0 l/m 0,0 km/h (0 Bft) 0 min
28.02.2016 00:11 22,1 C -0,6 C 0,8 C 70 % 0 % 1009 hPa 0,0 l/m 0,0 km/h (0 Bft) 0 min
28.02.2016 00:14 22,1 C -0,7 C 0,8 C 70 % 0 % 1009 hPa 0,0 l/m 0,0 km/h (0 Bft) 0 min
28.02.2016 00:17 22,1 C -0,8 C 0,8 C 70 % 0 % 1009 hPa 0,0 l/m 0,0 km/h (0 Bft) 0 min
28.02.2016 00:20 22,1 C -0,8 C 0,8 C 70 % 0 % 1009 hPa 0,0 l/m 0,0 km/h (0 Bft) 0 min
28.02.2016 00:23 22,2 C -0,7 C 1,0 C 70 % 0 % 1009 hPa 0,0 l/m 0,0 km/h (0 Bft) 0 min
28.02.2016 00:26 22,1 C -0,7 C 0,9 C 70 % 0 % 1009 hPa 0,0 l/m 0,0 km/h (0 Bft) 0 min
28.02.2016 00:29 22,1 C -0,8 C 1,1 C 70 % 0 % 1009 hPa 0,0 l/m 0,0 km/h (0 Bft) 0 min
28.02.2016 00:32 22,1 C -0,8 C 0,6 C 70 % 0 % 1009 hPa 0,0 l/m 0,0 km/h (0 Bft) 0 min
28.02.2016 00:35 22,1 C -0,9 C 0,6 C 71 % 0 % 1009 hPa 0,0 l/m 0,0 km/h (0 Bft) 0 min
28.02.2016 00:38 22,1 C -0,9 C 0,7 C 71 % 0 % 1009 hPa 0,0 l/m 0,0 km/h (0 Bft) 0 min
28.02.2016 00:41 22,2 C -0,9 C 0,7 C 71 % 0 % 1009 hPa 0,0 l/m 0,0 km/h (0 Bft) 0 min
28.02.2016 00:44 22,1 C -1,0 C 0,6 C 71 % 0 % 1009 hPa 0,0 l/m 0,0 km/h (0 Bft) 0 min
28.02.2016 00:47 22,1 C -1,0 C 0,8 C 71 % 0 % 1009 hPa 0,0 l/m 0,1 km/h (0 Bft) 0 min
28.02.2016 00:50 22,1 C -1,0 C 0,7 C 72 % 0 % 1009 hPa 0,0 l/m 0,0 km/h (0 Bft) 0 min
28.02.2016 00:53 22,1 C -0,9 C 0,8 C 72 % 0 % 1009 hPa 0,0 l/m 0,0 km/h (0 Bft) 0 min
28.02.2016 00:56 22,1 C -0,9 C 0,8 C 72 % 0 % 1009 hPa 0,0 l/m 0,1 km/h (0 Bft) 0 min
28.02.2016 00:59 22,1 C -0,9 C 0,9 C 72 % 0 % 1009 hPa 0,0 l/m 0,0 km/h (0 Bft) 0 min
28.02.2016 01:02 22,1 C -0,9 C 0,6 C 72 % 0 % 1009 hPa 0,0 l/m 0,0 km/h (0 Bft) 0 min
28.02.2016 01:05 22,1 C -0,9 C 0,6 C 72 % 0 % 1009 hPa 0,0 l/m 0,0 km/h (0 Bft) 0 min
28.02.2016 01:08 22,1 C -0,8 C 0,7 C 72 % 0 % 1009 hPa 0,0 l/m 0,0 km/h (0 Bft) 0 min
28.02.2016 01:11 22,1 C -0,8 C 0,7 C 72 % 0 % 1009 hPa 0,0 l/m 0,0 km/h (0 Bft) 0 min
28.02.2016 01:14 22,1 C -0,8 C 0,5 C 71 % 0 % 1009 hPa 0,0 l/m 0,0 km/h (0 Bft) 0 min
28.02.2016 01:17 22,1 C -0,9 C 0,3 C 71 % 0 % 1009 hPa 0,0 l/m 0,0 km/h (0 Bft) 0 min
28.02.2016 01:20 22,1 C -0,9 C 0,3 C 71 % 0 % 1009 hPa 0,0 l/m 0,0 km/h (0 Bft) 0 min
28.02.2016 01:23 22,1 C -1,0 C 0,4 C 72 % 0 % 1009 hPa 0,0 l/m 0,0 km/h (0 Bft) 0 min
28.02.2016 01:26 22,1 C -1,0 C 0,6 C 72 % 0 % 1009 hPa 0,0 l/m 0,0 km/h (0 Bft) 0 min
28.02.2016 01:29 22,1 C -1,1 C 0,6 C 72 % 0 % 1009 hPa 0,0 l/m 0,0 km/h (0 Bft) 0 min
28.02.2016 01:32 22,1 C -1,0 C 0,7 C 72 % 0 % 1009 hPa 0,0 l/m 0,0 km/h (0 Bft) 0 min
28.02.2016 01:35 22,1 C -1,0 C 0,7 C 72 % 0 % 1009 hPa 0,0 l/m 0,0 km/h (0 Bft) 0 min
28.02.2016 01:38 22,1 C -1,1 C 0,7 C 72 % 0 % 1009 hPa 0,0 l/m 0,0 km/h (0 Bft) 0 min
28.02.2016 01:41 22,1 C -1,1 C 0,3 C 72 % 0 % 1009 hPa 0,0 l/m 0,0 km/h (0 Bft) 0 min
28.02.2016 01:44 22,1 C -1,1 C 0,2 C 72 % 0 % 1009 hPa 0,0 l/m 0,0 km/h (0 Bft) 0 min
28.02.2016 01:47 22,1 C -1,2 C 0,6 C 72 % 0 % 1009 hPa 0,0 l/m 0,0 km/h (0 Bft) 0 min
28.02.2016 01:50 22,1 C -1,3 C 0,2 C 72 % 0 % 1009 hPa 0,0 l/m 0,0 km/h (0 Bft) 0 min
28.02.2016 01:53 22,0 C -1,4 C 0,1 C 73 % 0 % 1009 hPa 0,0 l/m 0,0 km/h (0 Bft) 0 min
28.02.2016 01:56 22,1 C -1,3 C -0,1 C 73 % 0 % 1009 hPa 0,0 l/m 0,0 km/h (0 Bft) 0 min
28.02.2016 01:59 22,1 C -1,6 C -0,1 C 73 % 0 % 1009 hPa 0,0 l/m 2,1 km/h (1 Bft) 0 min
28.02.2016 02:02 22,1 C -1,6 C 0,5 C 73 % 0 % 1009 hPa 0,0 l/m 1,9 km/h (1 Bft) 0 min
28.02.2016 02:05 22,1 C -1,6 C 0,4 C 74 % 0 % 1009 hPa 0,0 l/m 0,3 km/h (0 Bft) 0 min
28.02.2016 02:08 22,1 C -1,6 C 0,2 C 74 % 0 % 1009 hPa 0,0 l/m 0,0 km/h (0 Bft) 0 min
28.02.2016 02:11 22,1 C -1,5 C 0,2 C 75 % 0 % 1009 hPa 0,0 l/m 1,6 km/h (1 Bft) 0 min
28.02.2016 02:14 22,1 C -1,4 C 0,3 C 75 % 0 % 1009 hPa 0,0 l/m 0,0 km/h (0 Bft) 0 min
28.02.2016 02:17 22,1 C -1,3 C 0,1 C 75 % 0 % 1009 hPa 0,0 l/m 0,0 km/h (0 Bft) 0 min
28.02.2016 02:20 22,1 C -1,2 C 0,3 C 75 % 0 % 1009 hPa 0,0 l/m 0,0 km/h (0 Bft) 0 min
28.02.2016 02:23 22,1 C -1,1 C 0,3 C 75 % 0 % 1009 hPa 0,0 l/m 0,0 km/h (0 Bft) 0 min
28.02.2016 02:26 22,1 C -1,1 C 0,2 C 75 % 0 % 1009 hPa 0,0 l/m 0,0 km/h (0 Bft) 0 min
28.02.2016 02:29 22,1 C -1,1 C 0,2 C 74 % 0 % 1009 hPa 0,0 l/m 0,0 km/h (0 Bft) 0 min
28.02.2016 02:32 22,1 C -1,2 C 0,3 C 74 % 0 % 1009 hPa 0,0 l/m 0,0 km/h (0 Bft) 0 min
28.02.2016 02:35 22,1 C -1,3 C 0,3 C 74 % 0 % 1009 hPa 0,0 l/m 0,0 km/h (0 Bft) 0 min
28.02.2016 02:38 22,1 C -1,3 C 0,3 C 74 % 0 % 1009 hPa 0,0 l/m 0,0 km/h (0 Bft) 0 min
28.02.2016 02:41 22,1 C -1,4 C 0,3 C 74 % 0 % 1009 hPa 0,0 l/m 0,0 km/h (0 Bft) 0 min
28.02.2016 02:44 22,1 C -1,3 C 0,0 C 74 % 0 % 1009 hPa 0,0 l/m 0,0 km/h (0 Bft) 0 min
28.02.2016 02:47 22,1 C -1,3 C 0,1 C 74 % 0 % 1009 hPa 0,0 l/m 0,0 km/h (0 Bft) 0 min
28.02.2016 02:50 22,1 C -1,4 C 0,2 C 74 % 0 % 1009 hPa 0,0 l/m 0,0 km/h (0 Bft) 0 min
28.02.2016 02:54 22,1 C -1,5 C 0,2 C 74 % 0 % 1009 hPa 0,0 l/m 0,0 km/h (0 Bft) 0 min
28.02.2016 02:57 22,1 C -1,4 C 0,3 C 74 % 0 % 1009 hPa 0,0 l/m 0,0 km/h (0 Bft) 0 min
28.02.2016 03:00 22,1 C -1,4 C 0,3 C 74 % 0 % 1009 hPa 0,0 l/m 0,0 km/h (0 Bft) 0 min
28.02.2016 03:03 22,1 C -1,4 C 0,3 C 74 % 0 % 1009 hPa 0,0 l/m 0,0 km/h (0 Bft) 0 min
28.02.2016 03:06 22,1 C -1,4 C 0,3 C 74 % 0 % 1009 hPa 0,0 l/m 0,0 km/h (0 Bft) 0 min
28.02.2016 03:09 22,1 C -1,4 C 0,2 C 74 % 0 % 1009 hPa 0,0 l/m 0,0 km/h (0 Bft) 0 min
28.02.2016 03:12 22,1 C -1,4 C 0,1 C 74 % 0 % 1009 hPa 0,0 l/m 0,0 km/h (0 Bft) 0 min
28.02.2016 03:18 22,1 C -1,5 C 0,1 C 75 % 0 % 1009 hPa 0,0 l/m 0,0 km/h (0 Bft) 0 min
28.02.2016 03:21 22,1 C -1,5 C 0,1 C 75 % 0 % 1009 hPa 0,0 l/m 0,0 km/h (0 Bft) 0 min
28.02.2016 03:24 22,1 C -1,5 C 0,0 C 75 % 0 % 1009 hPa 0,0 l/m 0,0 km/h (0 Bft) 0 min
28.02.2016 03:27 22,1 C -1,6 C 0,2 C 75 % 0 % 1009 hPa 0,0 l/m 0,0 km/h (0 Bft) 0 min
28.02.2016 03:30 22,1 C -1,6 C 0,0 C 75 % 0 % 1009 hPa 0,0 l/m 0,0 km/h (0 Bft) 0 min
28.02.2016 03:33 22,0 C -1,7 C 0,1 C 75 % 0 % 1009 hPa 0,0 l/m 0,0 km/h (0 Bft) 0 min
28.02.2016 03:36 22,0 C -1,6 C 0,1 C 75 % 0 % 1009 hPa 0,0 l/m 0,6 km/h (0 Bft) 0 min
28.02.2016 03:39 22,1 C -1,5 C 0,1 C 76 % 0 % 1009 hPa 0,0 l/m 0,0 km/h (0 Bft) 0 min
28.02.2016 03:42 22,0 C -1,5 C 0,0 C 76 % 0 % 1009 hPa 0,0 l/m 0,0 km/h (0 Bft) 0 min
28.02.2016 03:45 22,1 C -1,5 C 0,1 C 76 % 0 % 1009 hPa 0,0 l/m 0,1 km/h (0 Bft) 0 min
28.02.2016 03:48 22,1 C -1,5 C 0,1 C 75 % 0 % 1009 hPa 0,0 l/m 0,0 km/h (0 Bft) 0 min
28.02.2016 03:51 22,0 C -1,5 C 0,1 C 75 % 0 % 1009 hPa 0,0 l/m 0,0 km/h (0 Bft) 0 min
28.02.2016 03:54 22,1 C -1,6 C -0,1 C 75 % 0 % 1009 hPa 0,0 l/m 0,0 km/h (0 Bft) 0 min
28.02.2016 03:57 22,0 C -1,6 C -0,1 C 76 % 0 % 1009 hPa 0,0 l/m 0,0 km/h (0 Bft) 0 min
28.02.2016 04:00 22,1 C -1,6 C -0,1 C 75 % 0 % 1009 hPa 0,0 l/m 0,0 km/h (0 Bft) 0 min
28.02.2016 04:03 22,1 C -1,7 C -0,1 C 76 % 0 % 1009 hPa 0,0 l/m 0,0 km/h (0 Bft) 0 min
28.02.2016 04:06 22,1 C -1,7 C -0,1 C 76 % 0 % 1009 hPa 0,0 l/m 0,2 km/h (0 Bft) 0 min
28.02.2016 04:09 22,1 C -1,6 C 0,0 C 76 % 0 % 1009 hPa 0,0 l/m 0,0 km/h (0 Bft) 0 min
28.02.2016 04:12 22,0 C -1,7 C 0,0 C 76 % 0 % 1009 hPa 0,0 l/m 0,0 km/h (0 Bft) 0 min
28.02.2016 04:15 22,1 C -1,7 C 0,0 C 76 % 0 % 1009 hPa 0,0 l/m 0,0 km/h (0 Bft) 0 min
28.02.2016 04:18 22,1 C -1,6 C 0,1 C 76 % 0 % 1009 hPa 0,0 l/m 0,0 km/h (0 Bft) 0 min
28.02.2016 04:21 22,0 C -1,6 C 0,1 C 76 % 0 % 1009 hPa 0,0 l/m 0,0 km/h (0 Bft) 0 min
28.02.2016 04:24 22,1 C -1,6 C 0,1 C 76 % 0 % 1009 hPa 0,0 l/m 0,0 km/h (0 Bft) 0 min
28.02.2016 04:27 22,1 C -1,6 C 0,0 C 76 % 0 % 1009 hPa 0,0 l/m 0,0 km/h (0 Bft) 0 min
28.02.2016 04:30 22,1 C -1,6 C 0,0 C 76 % 0 % 1009 hPa 0,0 l/m 0,0 km/h (0 Bft) 0 min
28.02.2016 04:33 22,1 C -1,5 C 0,0 C 76 % 0 % 1009 hPa 0,0 l/m 0,0 km/h (0 Bft) 0 min
28.02.2016 04:36 22,1 C -1,5 C 0,1 C 76 % 0 % 1009 hPa 0,0 l/m 0,0 km/h (0 Bft) 0 min
28.02.2016 04:39 22,1 C -1,5 C 0,1 C 76 % 0 % 1009 hPa 0,0 l/m 0,0 km/h (0 Bft) 0 min
28.02.2016 04:42 22,1 C -1,5 C 0,0 C 77 % 0 % 1009 hPa 0,0 l/m 0,0 km/h (0 Bft) 0 min
28.02.2016 04:45 22,1 C -1,4 C 0,0 C 76 % 0 % 1009 hPa 0,0 l/m 0,0 km/h (0 Bft) 0 min
28.02.2016 04:48 22,1 C -1,3 C 0,0 C 76 % 0 % 1009 hPa 0,0 l/m 1,6 km/h (1 Bft) 0 min
28.02.2016 04:51 22,1 C -1,3 C 0,0 C 76 % 0 % 1009 hPa 0,0 l/m 0,1 km/h (0 Bft) 0 min
28.02.2016 04:54 22,1 C -1,3 C 0,1 C 76 % 0 % 1009 hPa 0,0 l/m 0,0 km/h (0 Bft) 0 min
28.02.2016 04:57 22,1 C -1,3 C 0,1 C 76 % 0 % 1009 hPa 0,0 l/m 0,0 km/h (0 Bft) 0 min
28.02.2016 05:00 22,1 C -1,2 C 0,1 C 76 % 0 % 1009 hPa 0,0 l/m 0,3 km/h (0 Bft) 0 min
28.02.2016 05:03 22,0 C -1,1 C 0,1 C 76 % 0 % 1009 hPa 0,0 l/m 0,0 km/h (0 Bft) 0 min
28.02.2016 05:06 22,0 C -1,0 C 0,2 C 76 % 0 % 1009 hPa 0,0 l/m 0,0 km/h (0 Bft) 0 min
28.02.2016 05:09 22,1 C -1,0 C 0,2 C 76 % 0 % 1009 hPa 0,0 l/m 0,4 km/h (0 Bft) 0 min
28.02.2016 05:12 22,1 C -0,9 C 0,3 C 76 % 0 % 1009 hPa 0,0 l/m 0,6 km/h (0 Bft) 0 min
28.02.2016 05:15 22,1 C -0,9 C 0,2 C 76 % 0 % 1009 hPa 0,0 l/m 0,0 km/h (0 Bft) 0 min
28.02.2016 05:18 22,1 C -0,9 C 0,2 C 76 % 0 % 1009 hPa 0,0 l/m 0,1 km/h (0 Bft) 0 min
28.02.2016 05:21 22,1 C -0,9 C 0,3 C 76 % 0 % 1009 hPa 0,0 l/m 0,0 km/h (0 Bft) 0 min
28.02.2016 05:24 22,1 C -0,8 C 0,3 C 75 % 0 % 1009 hPa 0,0 l/m 0,3 km/h (0 Bft) 0 min
28.02.2016 05:27 22,1 C -0,8 C 0,3 C 75 % 0 % 1009 hPa 0,0 l/m 0,9 km/h (0 Bft) 0 min
28.02.2016 05:30 22,1 C -0,8 C 0,3 C 75 % 0 % 1009 hPa 0,0 l/m 0,9 km/h (0 Bft) 0 min
28.02.2016 05:33 22,1 C -0,7 C 0,3 C 75 % 0 % 1009 hPa 0,0 l/m 0,1 km/h (0 Bft) 0 min
28.02.2016 05:36 22,2 C -0,6 C 0,3 C 75 % 0 % 1009 hPa 0,0 l/m 0,0 km/h (0 Bft) 0 min
28.02.2016 05:39 22,1 C -0,6 C 0,3 C 75 % 0 % 1009 hPa 0,0 l/m 0,0 km/h (0 Bft) 0 min
28.02.2016 05:42 22,1 C -0,6 C 0,3 C 74 % 0 % 1009 hPa 0,0 l/m 0,0 km/h (0 Bft) 0 min
28.02.2016 05:45 22,1 C -0,6 C 0,3 C 74 % 0 % 1009 hPa 0,0 l/m 0,0 km/h (0 Bft) 0 min
28.02.2016 05:48 22,1 C -0,6 C 0,3 C 74 % 0 % 1009 hPa 0,0 l/m 0,0 km/h (0 Bft) 0 min
28.02.2016 05:51 22,1 C -0,5 C 0,3 C 74 % 0 % 1009 hPa 0,0 l/m 0,0 km/h (0 Bft) 0 min
28.02.2016 05:54 22,1 C -0,5 C 0,4 C 74 % 0 % 1009 hPa 0,0 l/m 0,0 km/h (0 Bft) 0 min
28.02.2016 05:57 22,1 C -0,5 C 0,4 C 74 % 0 % 1009 hPa 0,0 l/m 0,0 km/h (0 Bft) 0 min
28.02.2016 06:00 22,1 C -0,5 C 0,4 C 74 % 0 % 1009 hPa 0,0 l/m 0,0 km/h (0 Bft) 0 min
28.02.2016 06:03 22,2 C -0,5 C 0,5 C 74 % 0 % 1009 hPa 0,0 l/m 0,0 km/h (0 Bft) 0 min
28.02.2016 06:06 22,1 C -0,5 C 0,5 C 74 % 0 % 1009 hPa 0,0 l/m 0,0 km/h (0 Bft) 0 min
28.02.2016 06:09 22,2 C -0,5 C 0,5 C 74 % 0 % 1009 hPa 0,0 l/m 0,0 km/h (0 Bft) 0 min
28.02.2016 06:12 22,1 C -0,5 C 0,5 C 74 % 0 % 1009 hPa 0,0 l/m 0,0 km/h (0 Bft) 0 min
28.02.2016 06:15 22,1 C -0,4 C 0,5 C 74 % 0 % 1009 hPa 0,0 l/m 0,0 km/h (0 Bft) 0 min
28.02.2016 06:18 22,1 C -0,4 C 0,5 C 74 % 0 % 1009 hPa 0,0 l/m 0,0 km/h (0 Bft) 0 min
28.02.2016 06:21 22,1 C -0,5 C 0,5 C 74 % 0 % 1009 hPa 0,0 l/m 0,0 km/h (0 Bft) 0 min
28.02.2016 06:24 22,1 C -0,5 C 0,5 C 74 % 0 % 1009 hPa 0,0 l/m 0,0 km/h (0 Bft) 0 min
28.02.2016 06:27 22,1 C -0,3 C 0,6 C 74 % 0 % 1009 hPa 0,0 l/m 0,0 km/h (0 Bft) 0 min
28.02.2016 06:30 22,1 C -0,3 C 0,6 C 74 % 0 % 1009 hPa 0,0 l/m 0,0 km/h (0 Bft) 0 min
28.02.2016 06:33 22,1 C -0,2 C 0,6 C 74 % 0 % 1009 hPa 0,0 l/m 0,0 km/h (0 Bft) 0 min
28.02.2016 06:36 22,1 C 0,0 C 0,7 C 74 % 0 % 1009 hPa 0,0 l/m 0,0 km/h (0 Bft) 0 min
28.02.2016 06:39 22,1 C 0,1 C 0,7 C 73 % 0 % 1009 hPa 0,0 l/m 0,0 km/h (0 Bft) 0 min
28.02.2016 06:42 22,1 C 0,2 C 0,7 C 73 % 0 % 1009 hPa 0,0 l/m 0,0 km/h (0 Bft) 0 min
28.02.2016 06:45 22,1 C 0,3 C 0,7 C 72 % 0 % 1009 hPa 0,0 l/m 0,0 km/h (0 Bft) 0 min
28.02.2016 06:48 22,1 C 0,3 C 0,7 C 72 % 0 % 1009 hPa 0,0 l/m 0,0 km/h (0 Bft) 0 min
28.02.2016 06:51 22,1 C 0,3 C 0,7 C 72 % 0 % 1009 hPa 0,0 l/m 0,1 km/h (0 Bft) 0 min
28.02.2016 06:54 22,2 C 0,7 C 1,0 C 71 % 0 % 1009 hPa 0,0 l/m 0,6 km/h (0 Bft) 0 min
28.02.2016 06:57 22,1 C 0,7 C 1,0 C 70 % 1 % 1009 hPa 0,0 l/m 0,3 km/h (0 Bft) 0 min
28.02.2016 07:00 22,2 C 0,7 C 0,8 C 70 % 1 % 1009 hPa 0,0 l/m 0,3 km/h (0 Bft) 0 min
28.02.2016 07:03 22,1 C 0,5 C 0,8 C 70 % 1 % 1009 hPa 0,0 l/m 3,6 km/h (1 Bft) 0 min
28.02.2016 07:06 22,2 C 0,8 C 0,9 C 69 % 1 % 1009 hPa 0,0 l/m 0,0 km/h (0 Bft) 0 min
28.02.2016 07:09 22,2 C 0,8 C 0,9 C 68 % 2 % 1009 hPa 0,0 l/m 0,0 km/h (0 Bft) 0 min
28.02.2016 07:12 22,2 C 0,8 C 1,0 C 68 % 2 % 1009 hPa 0,0 l/m 0,0 km/h (0 Bft) 0 min
28.02.2016 07:15 22,1 C 0,8 C 0,9 C 68 % 2 % 1009 hPa 0,0 l/m 0,0 km/h (0 Bft) 0 min
28.02.2016 07:18 22,1 C 0,8 C 0,9 C 68 % 3 % 1009 hPa 0,0 l/m 0,0 km/h (0 Bft) 0 min
28.02.2016 07:21 22,2 C 0,8 C 1,0 C 67 % 3 % 1009 hPa 0,0 l/m 0,0 km/h (0 Bft) 0 min
28.02.2016 07:24 22,1 C 0,8 C 0,9 C 68 % 4 % 1009 hPa 0,0 l/m 0,0 km/h (0 Bft) 0 min
28.02.2016 07:27 22,2 C 0,8 C 1,0 C 68 % 4 % 1009 hPa 0,0 l/m 0,0 km/h (0 Bft) 0 min
28.02.2016 07:30 22,2 C 0,9 C 1,0 C 68 % 5 % 1009 hPa 0,0 l/m 0,0 km/h (0 Bft) 0 min
28.02.2016 07:33 22,1 C 1,0 C 1,0 C 67 % 6 % 1009 hPa 0,0 l/m 0,0 km/h (0 Bft) 0 min
28.02.2016 07:36 22,1 C 1,0 C 1,2 C 67 % 7 % 1009 hPa 0,0 l/m 0,0 km/h (0 Bft) 0 min
28.02.2016 07:39 22,1 C 1,1 C 1,0 C 67 % 8 % 1009 hPa 0,0 l/m 0,0 km/h (0 Bft) 0 min
28.02.2016 07:42 22,2 C 1,1 C 1,1 C 66 % 9 % 1009 hPa 0,0 l/m 0,0 km/h (0 Bft) 0 min
28.02.2016 07:45 22,1 C 1,2 C 1,4 C 66 % 10 % 1009 hPa 0,0 l/m 0,0 km/h (0 Bft) 0 min
28.02.2016 07:48 22,1 C 1,2 C 1,3 C 66 % 10 % 1009 hPa 0,0 l/m 0,0 km/h (0 Bft) 0 min
28.02.2016 07:51 22,2 C 1,3 C 1,4 C 65 % 11 % 1009 hPa 0,0 l/m 0,0 km/h (0 Bft) 0 min
28.02.2016 07:54 22,2 C 1,3 C 1,2 C 65 % 11 % 1009 hPa 0,0 l/m 0,0 km/h (0 Bft) 0 min
28.02.2016 07:57 22,1 C 1,3 C 1,3 C 66 % 11 % 1010 hPa 0,0 l/m 0,0 km/h (0 Bft) 0 min
28.02.2016 08:00 22,1 C 1,3 C 1,3 C 65 % 12 % 1010 hPa 0,0 l/m 0,0 km/h (0 Bft) 0 min
28.02.2016 08:03 22,1 C 1,3 C 1,4 C 65 % 12 % 1010 hPa 0,0 l/m 0,3 km/h (0 Bft) 0 min
28.02.2016 08:06 22,1 C 1,3 C 1,3 C 66 % 12 % 1010 hPa 0,0 l/m 0,3 km/h (0 Bft) 0 min
28.02.2016 08:09 22,1 C 1,4 C 1,4 C 65 % 13 % 1010 hPa 0,0 l/m 0,0 km/h (0 Bft) 0 min
28.02.2016 08:12 22,1 C 1,5 C 1,3 C 66 % 14 % 1010 hPa 0,0 l/m 0,0 km/h (0 Bft) 0 min
28.02.2016 08:15 22,1 C 1,5 C 1,4 C 65 % 15 % 1010 hPa 0,0 l/m 0,0 km/h (0 Bft) 0 min
28.02.2016 08:18 22,2 C 1,6 C 1,4 C 65 % 15 % 1010 hPa 0,0 l/m 1,9 km/h (1 Bft) 0 min
28.02.2016 08:21 22,1 C 1,6 C 1,5 C 65 % 17 % 1010 hPa 0,0 l/m 1,4 km/h (1 Bft) 0 min
28.02.2016 08:24 22,2 C 1,8 C 1,7 C 64 % 18 % 1010 hPa 0,0 l/m 0,1 km/h (0 Bft) 0 min
28.02.2016 08:27 22,1 C 1,9 C 1,7 C 64 % 19 % 1010 hPa 0,0 l/m 0,0 km/h (0 Bft) 0 min
28.02.2016 08:30 22,1 C 2,1 C 1,7 C 63 % 20 % 1010 hPa 0,0 l/m 0,0 km/h (0 Bft) 0 min
28.02.2016 08:33 22,2 C 2,2 C 1,9 C 62 % 22 % 1010 hPa 0,0 l/m 0,0 km/h (0 Bft) 0 min
28.02.2016 08:36 22,2 C 2,3 C 2,1 C 62 % 22 % 1010 hPa 0,0 l/m 0,1 km/h (0 Bft) 0 min
28.02.2016 08:39 22,1 C 2,3 C 1,9 C 62 % 23 % 1010 hPa 0,0 l/m 0,0 km/h (0 Bft) 0 min
28.02.2016 08:42 22,2 C 2,4 C 1,8 C 61 % 24 % 1010 hPa 0,0 l/m 0,0 km/h (0 Bft) 0 min
28.02.2016 08:45 22,2 C 2,5 C 1,9 C 61 % 25 % 1010 hPa 0,0 l/m 0,2 km/h (0 Bft) 0 min
28.02.2016 08:48 22,2 C 2,6 C 2,0 C 61 % 26 % 1010 hPa 0,0 l/m 0,0 km/h (0 Bft) 0 min
28.02.2016 08:51 22,2 C 2,7 C 2,1 C 60 % 26 % 1010 hPa 0,0 l/m 0,0 km/h (0 Bft) 0 min
28.02.2016 08:54 22,2 C 2,8 C 2,1 C 59 % 26 % 1010 hPa 0,0 l/m 0,0 km/h (0 Bft) 0 min
28.02.2016 08:57 22,2 C 2,9 C 2,2 C 59 % 27 % 1010 hPa 0,0 l/m 0,0 km/h (0 Bft) 0 min
28.02.2016 09:00 22,2 C 3,0 C 2,1 C 58 % 27 % 1010 hPa 0,0 l/m 0,0 km/h (0 Bft) 0 min
28.02.2016 09:03 22,2 C 3,0 C 2,1 C 57 % 28 % 1010 hPa 0,0 l/m 0,0 km/h (0 Bft) 0 min
28.02.2016 09:06 22,2 C 3,1 C 2,2 C 57 % 29 % 1010 hPa 0,0 l/m 0,3 km/h (0 Bft) 0 min
28.02.2016 09:09 22,2 C 3,2 C 2,4 C 55 % 29 % 1010 hPa 0,0 l/m 2,1 km/h (1 Bft) 0 min
28.02.2016 09:12 22,2 C 3,2 C 2,3 C 55 % 30 % 1010 hPa 0,0 l/m 1,0 km/h (0 Bft) 0 min
28.02.2016 09:15 22,2 C 3,3 C 2,5 C 55 % 30 % 1010 hPa 0,0 l/m 0,0 km/h (0 Bft) 0 min
28.02.2016 09:18 22,2 C 3,4 C 2,6 C 54 % 31 % 1010 hPa 0,0 l/m 0,0 km/h (0 Bft) 0 min
28.02.2016 09:21 22,2 C 3,5 C 2,6 C 54 % 31 % 1010 hPa 0,0 l/m 0,1 km/h (0 Bft) 0 min
28.02.2016 09:24 22,2 C 3,5 C 2,7 C 54 % 32 % 1010 hPa 0,0 l/m 0,0 km/h (0 Bft) 0 min
28.02.2016 09:27 22,2 C 3,6 C 2,7 C 53 % 32 % 1010 hPa 0,0 l/m 0,1 km/h (0 Bft) 0 min
28.02.2016 09:30 22,2 C 3,6 C 2,8 C 53 % 33 % 1010 hPa 0,0 l/m 0,4 km/h (0 Bft) 0 min
28.02.2016 09:33 22,2 C 3,7 C 2,8 C 53 % 34 % 1010 hPa 0,0 l/m 0,0 km/h (0 Bft) 0 min
28.02.2016 09:36 22,2 C 3,7 C 3,0 C 53 % 35 % 1010 hPa 0,0 l/m 0,0 km/h (0 Bft) 0 min
28.02.2016 09:39 22,2 C 3,8 C 3,0 C 53 % 35 % 1010 hPa 0,0 l/m 2,3 km/h (1 Bft) 0 min
28.02.2016 09:42 22,2 C 3,8 C 3,1 C 52 % 35 % 1010 hPa 0,0 l/m 4,5 km/h (1 Bft) 0 min
28.02.2016 09:45 22,2 C 3,8 C 3,1 C 52 % 35 % 1010 hPa 0,0 l/m 0,7 km/h (0 Bft) 0 min
28.02.2016 09:48 22,2 C 3,9 C 3,2 C 52 % 36 % 1010 hPa 0,0 l/m 0,0 km/h (0 Bft) 0 min
28.02.2016 09:51 22,2 C 3,9 C 3,2 C 52 % 36 % 1010 hPa 0,0 l/m 0,0 km/h (0 Bft) 0 min
28.02.2016 09:54 22,2 C 4,0 C 3,2 C 51 % 37 % 1010 hPa 0,0 l/m 0,0 km/h (0 Bft) 0 min
28.02.2016 09:57 22,2 C 4,1 C 3,2 C 52 % 38 % 1010 hPa 0,0 l/m 0,0 km/h (0 Bft) 0 min
28.02.2016 10:00 22,2 C 4,1 C 3,4 C 51 % 38 % 1010 hPa 0,0 l/m 2,2 km/h (1 Bft) 0 min
28.02.2016 10:03 22,2 C 4,1 C 3,4 C 50 % 40 % 1010 hPa 0,0 l/m 0,3 km/h (0 Bft) 0 min
28.02.2016 10:06 22,2 C 4,1 C 3,4 C 51 % 42 % 1010 hPa 0,0 l/m 0,0 km/h (0 Bft) 0 min
28.02.2016 10:09 22,0 C 4,2 C 3,7 C 51 % 45 % 1010 hPa 0,0 l/m 0,0 km/h (0 Bft) 0 min
28.02.2016 10:12 21,5 C 4,3 C 3,6 C 50 % 47 % 1010 hPa 0,0 l/m 0,0 km/h (0 Bft) 0 min
28.02.2016 10:15 21,2 C 4,2 C 3,8 C 50 % 46 % 1010 hPa 0,0 l/m 0,1 km/h (0 Bft) 0 min
28.02.2016 10:18 20,9 C 4,4 C 3,7 C 50 % 49 % 1010 hPa 0,0 l/m 0,1 km/h (0 Bft) 0 min
28.02.2016 10:21 20,9 C 4,5 C 3,8 C 50 % 52 % 1010 hPa 0,0 l/m 0,3 km/h (0 Bft) 0 min
28.02.2016 10:24 21,0 C 4,6 C 3,9 C 50 % 52 % 1010 hPa 0,0 l/m 0,0 km/h (0 Bft) 0 min
28.02.2016 10:27 21,2 C 4,6 C 4,1 C 49 % 53 % 1010 hPa 0,0 l/m 0,2 km/h (0 Bft) 0 min
28.02.2016 10:30 21,3 C 4,9 C 3,9 C 51 % 55 % 1010 hPa 0,0 l/m 0,2 km/h (0 Bft) 3 min
28.02.2016 10:33 21,4 C 4,9 C 4,0 C 50 % 56 % 1010 hPa 0,0 l/m 3,8 km/h (1 Bft) 3 min
28.02.2016 10:36 21,6 C 5,1 C 4,1 C 50 % 58 % 1010 hPa 0,0 l/m 0,0 km/h (0 Bft) 3 min
28.02.2016 10:39 21,6 C 5,2 C 4,1 C 50 % 58 % 1010 hPa 0,0 l/m 5,0 km/h (1 Bft) 3 min
28.02.2016 10:42 21,7 C 5,3 C 4,1 C 50 % 56 % 1010 hPa 0,0 l/m 3,9 km/h (1 Bft) 3 min
28.02.2016 10:45 21,7 C 5,2 C 4,4 C 49 % 56 % 1010 hPa 0,0 l/m 3,9 km/h (1 Bft) 3 min
28.02.2016 10:48 21,8 C 5,2 C 4,6 C 48 % 56 % 1010 hPa 0,0 l/m 0,1 km/h (0 Bft) 3 min
28.02.2016 10:51 21,8 C 5,2 C 4,5 C 49 % 56 % 1010 hPa 0,0 l/m 0,5 km/h (0 Bft) 3 min
28.02.2016 10:54 21,8 C 5,2 C 4,5 C 49 % 56 % 1010 hPa 0,0 l/m 0,4 km/h (0 Bft) 3 min
28.02.2016 10:57 21,9 C 5,3 C 4,6 C 48 % 55 % 1010 hPa 0,0 l/m 5,3 km/h (1 Bft) 3 min
28.02.2016 11:00 21,9 C 5,4 C 4,6 C 48 % 58 % 1010 hPa 0,0 l/m 1,0 km/h (0 Bft) 3 min
28.02.2016 11:03 22,0 C 5,5 C 4,7 C 48 % 55 % 1010 hPa 0,0 l/m 2,6 km/h (1 Bft) 3 min
28.02.2016 11:06 22,0 C 5,6 C 4,9 C 48 % 60 % 1010 hPa 0,0 l/m 5,7 km/h (1 Bft) 3 min
28.02.2016 11:09 22,0 C 5,7 C 5,0 C 48 % 60 % 1010 hPa 0,0 l/m 3,5 km/h (1 Bft) 3 min
28.02.2016 11:12 22,0 C 5,7 C 5,1 C 48 % 77 % 1010 hPa 0,0 l/m 3,7 km/h (1 Bft) 3 min
28.02.2016 11:15 22,0 C 6,0 C 5,4 C 48 % 81 % 1010 hPa 0,0 l/m 0,4 km/h (0 Bft) 3 min
28.02.2016 11:18 22,0 C 6,2 C 5,3 C 47 % 81 % 1010 hPa 0,0 l/m 1,0 km/h (0 Bft) 3 min
28.02.2016 11:21 22,1 C 6,4 C 5,2 C 47 % 80 % 1010 hPa 0,0 l/m 0,0 km/h (0 Bft) 3 min
28.02.2016 11:24 22,1 C 6,6 C 5,2 C 47 % 79 % 1010 hPa 0,0 l/m 0,6 km/h (0 Bft) 3 min
28.02.2016 11:27 22,1 C 6,6 C 5,7 C 47 % 79 % 1010 hPa 0,0 l/m 0,2 km/h (0 Bft) 3 min
28.02.2016 11:30 22,2 C 6,7 C 5,6 C 47 % 77 % 1010 hPa 0,0 l/m 0,1 km/h (0 Bft) 3 min
28.02.2016 11:33 22,2 C 6,8 C 5,4 C 46 % 77 % 1010 hPa 0,0 l/m 3,7 km/h (1 Bft) 3 min
28.02.2016 11:36 22,2 C 7,0 C 5,9 C 46 % 75 % 1010 hPa 0,0 l/m 5,6 km/h (1 Bft) 3 min
28.02.2016 11:39 22,2 C 7,1 C 5,7 C 45 % 69 % 1010 hPa 0,0 l/m 0,0 km/h (0 Bft) 3 min
28.02.2016 11:42 22,2 C 7,1 C 5,7 C 45 % 69 % 1010 hPa 0,0 l/m 4,0 km/h (1 Bft) 3 min
28.02.2016 11:45 22,2 C 7,1 C 5,9 C 45 % 52 % 1010 hPa 0,0 l/m 4,1 km/h (1 Bft) 0 min
28.02.2016 11:48 22,2 C 7,2 C 6,1 C 45 % 51 % 1010 hPa 0,0 l/m 4,1 km/h (1 Bft) 0 min
28.02.2016 11:51 22,2 C 7,3 C 6,1 C 45 % 50 % 1010 hPa 0,0 l/m 5,3 km/h (1 Bft) 0 min
28.02.2016 11:54 22,2 C 7,3 C 6,4 C 45 % 51 % 1010 hPa 0,0 l/m 2,7 km/h (1 Bft) 0 min
28.02.2016 11:57 22,2 C 7,6 C 6,0 C 45 % 54 % 1010 hPa 0,0 l/m 2,4 km/h (1 Bft) 3 min
28.02.2016 12:00 22,2 C 7,7 C 6,2 C 45 % 54 % 1010 hPa 0,0 l/m 2,0 km/h (1 Bft) 3 min
28.02.2016 12:03 22,2 C 7,8 C 6,3 C 45 % 57 % 1010 hPa 0,0 l/m 0,3 km/h (0 Bft) 3 min
28.02.2016 12:06 22,1 C 7,8 C 6,3 C 44 % 58 % 1010 hPa 0,0 l/m 0,3 km/h (0 Bft) 3 min
28.02.2016 12:09 22,1 C 7,9 C 6,5 C 45 % 55 % 1010 hPa 0,0 l/m 0,2 km/h (0 Bft) 3 min
28.02.2016 12:12 22,1 C 7,9 C 6,7 C 45 % 51 % 1010 hPa 0,0 l/m 0,0 km/h (0 Bft) 0 min
28.02.2016 12:15 22,1 C 7,8 C 6,6 C 44 % 49 % 1010 hPa 0,0 l/m 0,1 km/h (0 Bft) 0 min
28.02.2016 12:18 22,1 C 7,9 C 6,6 C 44 % 48 % 1010 hPa 0,0 l/m 0,8 km/h (0 Bft) 0 min
28.02.2016 12:21 22,1 C 8,0 C 6,7 C 44 % 48 % 1010 hPa 0,0 l/m 3,2 km/h (1 Bft) 0 min
28.02.2016 12:24 22,1 C 7,9 C 6,8 C 44 % 48 % 1010 hPa 0,0 l/m 0,1 km/h (0 Bft) 0 min
28.02.2016 12:27 22,1 C 7,9 C 7,0 C 44 % 53 % 1010 hPa 0,0 l/m 0,0 km/h (0 Bft) 3 min
28.02.2016 12:30 22,1 C 7,9 C 7,0 C 45 % 58 % 1010 hPa 0,0 l/m 0,5 km/h (0 Bft) 3 min
28.02.2016 12:33 22,1 C 8,1 C 7,0 C 45 % 58 % 1010 hPa 0,0 l/m 3,6 km/h (1 Bft) 3 min
28.02.2016 12:36 22,1 C 8,3 C 7,0 C 45 % 58 % 1009 hPa 0,0 l/m 3,6 km/h (1 Bft) 3 min
28.02.2016 12:39 22,1 C 8,6 C 7,0 C 45 % 65 % 1009 hPa 0,0 l/m 1,8 km/h (1 Bft) 3 min
28.02.2016 12:42 22,1 C 8,7 C 6,9 C 44 % 67 % 1009 hPa 0,0 l/m 6,3 km/h (2 Bft) 3 min
28.02.2016 12:45 22,1 C 8,9 C 7,1 C 45 % 65 % 1009 hPa 0,0 l/m 6,8 km/h (2 Bft) 3 min
28.02.2016 12:48 22,1 C 8,8 C 7,4 C 44 % 62 % 1009 hPa 0,0 l/m 6,8 km/h (2 Bft) 3 min
28.02.2016 12:51 22,1 C 8,9 C 7,3 C 43 % 63 % 1009 hPa 0,0 l/m 0,6 km/h (0 Bft) 3 min
28.02.2016 12:54 22,1 C 9,0 C 7,5 C 43 % 64 % 1009 hPa 0,0 l/m 4,9 km/h (1 Bft) 3 min
28.02.2016 12:57 22,1 C 9,2 C 7,3 C 43 % 64 % 1009 hPa 0,0 l/m 4,9 km/h (1 Bft) 3 min
28.02.2016 13:00 22,1 C 9,1 C 7,6 C 42 % 59 % 1009 hPa 0,0 l/m 0,9 km/h (0 Bft) 3 min
28.02.2016 13:03 22,1 C 9,1 C 7,7 C 42 % 58 % 1009 hPa 0,0 l/m 0,3 km/h (0 Bft) 3 min
28.02.2016 13:06 22,1 C 9,4 C 7,7 C 42 % 60 % 1009 hPa 0,0 l/m 2,7 km/h (1 Bft) 3 min
28.02.2016 13:09 22,1 C 9,5 C 7,6 C 42 % 60 % 1009 hPa 0,0 l/m 5,3 km/h (1 Bft) 3 min
28.02.2016 13:12 22,1 C 9,5 C 7,9 C 42 % 57 % 1009 hPa 0,0 l/m 1,2 km/h (1 Bft) 3 min
28.02.2016 13:15 22,1 C 9,6 C 7,7 C 43 % 53 % 1009 hPa 0,0 l/m 5,4 km/h (1 Bft) 3 min
28.02.2016 13:18 22,1 C 9,5 C 7,8 C 43 % 53 % 1009 hPa 0,0 l/m 5,6 km/h (1 Bft) 3 min
28.02.2016 13:21 22,1 C 9,6 C 7,9 C 43 % 43 % 1009 hPa 0,0 l/m 3,0 km/h (1 Bft) 0 min
28.02.2016 13:24 22,1 C 9,6 C 7,8 C 43 % 42 % 1009 hPa 0,0 l/m 0,6 km/h (0 Bft) 0 min
28.02.2016 13:27 22,1 C 9,5 C 8,0 C 43 % 41 % 1009 hPa 0,0 l/m 4,0 km/h (1 Bft) 0 min
28.02.2016 13:30 22,1 C 9,6 C 8,1 C 43 % 40 % 1009 hPa 0,0 l/m 0,7 km/h (0 Bft) 0 min
28.02.2016 13:33 22,1 C 9,7 C 8,0 C 43 % 40 % 1009 hPa 0,0 l/m 0,7 km/h (0 Bft) 0 min
28.02.2016 13:36 22,1 C 9,7 C 8,1 C 43 % 40 % 1009 hPa 0,0 l/m 3,4 km/h (1 Bft) 0 min
28.02.2016 13:39 22,0 C 9,8 C 8,4 C 43 % 40 % 1009 hPa 0,0 l/m 0,9 km/h (0 Bft) 0 min
28.02.2016 13:42 22,1 C 10,0 C 8,4 C 43 % 39 % 1009 hPa 0,0 l/m 3,1 km/h (1 Bft) 0 min
28.02.2016 13:45 22,1 C 10,1 C 8,6 C 43 % 39 % 1009 hPa 0,0 l/m 0,9 km/h (0 Bft) 0 min
28.02.2016 13:48 22,0 C 10,2 C 8,5 C 43 % 38 % 1009 hPa 0,0 l/m 4,3 km/h (1 Bft) 0 min
28.02.2016 13:51 22,1 C 10,2 C 8,5 C 44 % 37 % 1009 hPa 0,0 l/m 1,5 km/h (1 Bft) 0 min
28.02.2016 13:54 22,1 C 10,3 C 8,5 C 42 % 36 % 1009 hPa 0,0 l/m 0,6 km/h (0 Bft) 0 min
28.02.2016 13:57 22,0 C 10,3 C 8,5 C 42 % 35 % 1009 hPa 0,0 l/m 2,8 km/h (1 Bft) 0 min
28.02.2016 14:00 22,1 C 10,2 C 8,7 C 42 % 34 % 1009 hPa 0,0 l/m 4,1 km/h (1 Bft) 0 min
28.02.2016 14:03 22,1 C 10,3 C 8,7 C 43 % 34 % 1009 hPa 0,0 l/m 2,6 km/h (1 Bft) 0 min
28.02.2016 14:06 22,2 C 10,3 C 8,7 C 43 % 33 % 1009 hPa 0,0 l/m 0,0 km/h (0 Bft) 0 min
28.02.2016 14:09 22,1 C 10,2 C 8,6 C 43 % 32 % 1009 hPa 0,0 l/m 0,0 km/h (0 Bft) 0 min
28.02.2016 14:12 22,2 C 10,3 C 8,6 C 42 % 31 % 1009 hPa 0,0 l/m 0,0 km/h (0 Bft) 0 min
28.02.2016 14:15 22,2 C 10,3 C 8,6 C 43 % 30 % 1009 hPa 0,0 l/m 2,1 km/h (1 Bft) 0 min
28.02.2016 14:18 22,2 C 10,4 C 8,7 C 42 % 29 % 1009 hPa 0,0 l/m 1,5 km/h (1 Bft) 0 min
28.02.2016 14:21 22,2 C 10,5 C 8,6 C 42 % 28 % 1009 hPa 0,0 l/m 1,5 km/h (1 Bft) 0 min
28.02.2016 14:24 22,2 C 10,4 C 8,7 C 42 % 27 % 1009 hPa 0,0 l/m 2,6 km/h (1 Bft) 0 min
28.02.2016 14:27 22,2 C 10,5 C 8,6 C 43 % 27 % 1009 hPa 0,0 l/m 2,6 km/h (1 Bft) 0 min
28.02.2016 14:30 22,3 C 10,5 C 8,5 C 43 % 26 % 1009 hPa 0,0 l/m 0,4 km/h (0 Bft) 0 min
28.02.2016 14:33 22,3 C 10,5 C 8,6 C 43 % 25 % 1009 hPa 0,0 l/m 0,3 km/h (0 Bft) 0 min
28.02.2016 14:36 22,3 C 10,5 C 8,6 C 44 % 24 % 1009 hPa 0,0 l/m 0,0 km/h (0 Bft) 0 min
28.02.2016 14:39 22,3 C 10,5 C 8,5 C 45 % 24 % 1009 hPa 0,0 l/m 1,3 km/h (1 Bft) 0 min
28.02.2016 14:42 22,4 C 10,5 C 8,6 C 43 % 23 % 1009 hPa 0,0 l/m 0,3 km/h (0 Bft) 0 min
28.02.2016 14:45 22,4 C 10,5 C 8,5 C 44 % 23 % 1009 hPa 0,0 l/m 0,1 km/h (0 Bft) 0 min
28.02.2016 14:48 22,4 C 10,5 C 8,5 C 44 % 22 % 1009 hPa 0,0 l/m 0,0 km/h (0 Bft) 0 min
28.02.2016 14:51 22,4 C 10,6 C 8,7 C 44 % 22 % 1009 hPa 0,0 l/m 0,0 km/h (0 Bft) 0 min
28.02.2016 14:54 22,4 C 10,5 C 8,5 C 44 % 20 % 1009 hPa 0,0 l/m 2,3 km/h (1 Bft) 0 min
28.02.2016 14:57 22,4 C 10,5 C 8,6 C 44 % 20 % 1009 hPa 0,0 l/m 0,1 km/h (0 Bft) 0 min
28.02.2016 15:00 22,4 C 10,5 C 8,6 C 44 % 19 % 1009 hPa 0,0 l/m 1,4 km/h (1 Bft) 0 min
28.02.2016 15:03 22,4 C 10,5 C 8,5 C 45 % 19 % 1009 hPa 0,0 l/m 0,3 km/h (0 Bft) 0 min
28.02.2016 15:06 22,4 C 10,6 C 8,5 C 45 % 18 % 1009 hPa 0,0 l/m 0,4 km/h (0 Bft) 0 min
28.02.2016 15:09 22,4 C 10,6 C 8,5 C 45 % 18 % 1009 hPa 0,0 l/m 0,9 km/h (0 Bft) 0 min
28.02.2016 15:12 22,4 C 10,6 C 8,5 C 44 % 18 % 1009 hPa 0,0 l/m 4,0 km/h (1 Bft) 0 min
28.02.2016 15:15 22,4 C 10,6 C 8,8 C 43 % 18 % 1009 hPa 0,0 l/m 3,1 km/h (1 Bft) 0 min
28.02.2016 15:18 22,4 C 10,6 C 8,7 C 43 % 17 % 1009 hPa 0,0 l/m 3,7 km/h (1 Bft) 0 min
28.02.2016 15:21 22,4 C 10,7 C 8,7 C 42 % 17 % 1009 hPa 0,0 l/m 10,2 km/h (2 Bft) 0 min
28.02.2016 15:24 22,5 C 10,8 C 9,2 C 41 % 16 % 1009 hPa 0,0 l/m 10,6 km/h (2 Bft) 0 min
28.02.2016 15:27 22,5 C 10,8 C 9,0 C 41 % 16 % 1009 hPa 0,0 l/m 10,7 km/h (2 Bft) 0 min
28.02.2016 15:30 22,5 C 10,8 C 9,0 C 40 % 16 % 1009 hPa 0,0 l/m 8,9 km/h (2 Bft) 0 min
28.02.2016 15:33 22,5 C 10,8 C 9,3 C 39 % 15 % 1009 hPa 0,0 l/m 14,3 km/h (3 Bft) 0 min
28.02.2016 15:36 22,5 C 10,8 C 9,3 C 39 % 15 % 1009 hPa 0,0 l/m 14,5 km/h (3 Bft) 0 min
28.02.2016 15:39 22,4 C 10,8 C 9,1 C 37 % 15 % 1009 hPa 0,0 l/m 14,4 km/h (3 Bft) 0 min
28.02.2016 15:42 22,5 C 10,8 C 8,9 C 37 % 15 % 1009 hPa 0,0 l/m 17,0 km/h (3 Bft) 0 min
28.02.2016 15:45 22,5 C 10,5 C 8,8 C 38 % 15 % 1009 hPa 0,0 l/m 17,3 km/h (3 Bft) 0 min
28.02.2016 15:48 22,4 C 10,5 C 8,8 C 39 % 14 % 1009 hPa 0,0 l/m 12,6 km/h (3 Bft) 0 min
28.02.2016 15:51 22,5 C 10,4 C 9,0 C 38 % 14 % 1009 hPa 0,0 l/m 15,1 km/h (3 Bft) 0 min
28.02.2016 15:54 22,5 C 10,5 C 9,0 C 38 % 14 % 1009 hPa 0,0 l/m 10,0 km/h (2 Bft) 0 min
28.02.2016 15:57 22,5 C 10,4 C 8,9 C 39 % 13 % 1009 hPa 0,0 l/m 6,7 km/h (2 Bft) 0 min
28.02.2016 16:00 22,5 C 10,4 C 8,8 C 39 % 13 % 1009 hPa 0,0 l/m 7,3 km/h (2 Bft) 0 min
28.02.2016 16:03 22,5 C 10,4 C 8,9 C 39 % 13 % 1009 hPa 0,0 l/m 6,1 km/h (2 Bft) 0 min
28.02.2016 16:06 22,5 C 10,4 C 8,8 C 39 % 12 % 1009 hPa 0,0 l/m 7,6 km/h (2 Bft) 0 min
28.02.2016 16:09 22,5 C 10,4 C 8,7 C 40 % 12 % 1009 hPa 0,0 l/m 6,8 km/h (2 Bft) 0 min
28.02.2016 16:12 22,5 C 10,2 C 8,9 C 39 % 12 % 1009 hPa 0,0 l/m 10,5 km/h (2 Bft) 0 min
28.02.2016 16:15 22,5 C 10,1 C 8,8 C 39 % 12 % 1010 hPa 0,0 l/m 9,9 km/h (2 Bft) 0 min
28.02.2016 16:18 22,5 C 10,1 C 8,8 C 39 % 12 % 1010 hPa 0,0 l/m 8,0 km/h (2 Bft) 0 min
28.02.2016 16:21 22,5 C 9,9 C 8,6 C 40 % 11 % 1010 hPa 0,0 l/m 10,3 km/h (2 Bft) 0 min
28.02.2016 16:24 22,6 C 9,8 C 8,8 C 40 % 11 % 1010 hPa 0,0 l/m 5,7 km/h (1 Bft) 0 min
28.02.2016 16:27 22,6 C 9,7 C 8,7 C 40 % 11 % 1010 hPa 0,0 l/m 8,5 km/h (2 Bft) 0 min
28.02.2016 16:30 22,6 C 9,7 C 8,7 C 40 % 11 % 1009 hPa 0,0 l/m 6,3 km/h (2 Bft) 0 min
28.02.2016 16:33 22,5 C 9,6 C 8,6 C 41 % 11 % 1010 hPa 0,0 l/m 7,4 km/h (2 Bft) 0 min
28.02.2016 16:36 22,6 C 9,5 C 8,6 C 41 % 11 % 1010 hPa 0,0 l/m 10,4 km/h (2 Bft) 0 min
28.02.2016 16:39 22,6 C 9,4 C 8,6 C 41 % 11 % 1010 hPa 0,0 l/m 5,5 km/h (1 Bft) 0 min
28.02.2016 16:42 22,6 C 9,3 C 8,5 C 42 % 11 % 1010 hPa 0,0 l/m 5,7 km/h (1 Bft) 0 min
28.02.2016 16:45 22,6 C 9,3 C 8,5 C 42 % 11 % 1010 hPa 0,0 l/m 5,4 km/h (1 Bft) 0 min
28.02.2016 16:48 22,4 C 9,1 C 8,5 C 42 % 11 % 1010 hPa 0,0 l/m 6,1 km/h (2 Bft) 0 min
28.02.2016 16:51 22,4 C 9,0 C 8,5 C 42 % 10 % 1010 hPa 0,0 l/m 5,2 km/h (1 Bft) 0 min
28.02.2016 16:54 22,4 C 8,8 C 8,4 C 43 % 9 % 1010 hPa 0,0 l/m 1,3 km/h (1 Bft) 0 min
28.02.2016 16:57 22,4 C 8,7 C 8,2 C 43 % 9 % 1010 hPa 0,0 l/m 10,7 km/h (2 Bft) 0 min
28.02.2016 17:00 22,4 C 8,6 C 8,2 C 43 % 8 % 1010 hPa 0,0 l/m 2,5 km/h (1 Bft) 0 min
28.02.2016 17:03 22,4 C 8,5 C 8,2 C 43 % 8 % 1010 hPa 0,0 l/m 8,7 km/h (2 Bft) 0 min
28.02.2016 17:06 22,4 C 8,5 C 8,1 C 43 % 7 % 1010 hPa 0,0 l/m 0,7 km/h (0 Bft) 0 min
28.02.2016 17:09 22,4 C 8,3 C 8,1 C 43 % 7 % 1010 hPa 0,0 l/m 2,3 km/h (1 Bft) 0 min
28.02.2016 17:12 22,4 C 8,2 C 8,0 C 44 % 6 % 1010 hPa 0,0 l/m 2,3 km/h (1 Bft) 0 min
28.02.2016 17:15 22,4 C 8,2 C 8,0 C 44 % 6 % 1010 hPa 0,0 l/m 8,1 km/h (2 Bft) 0 min
28.02.2016 17:18 22,4 C 8,0 C 7,9 C 44 % 5 % 1010 hPa 0,0 l/m 1,0 km/h (0 Bft) 0 min
28.02.2016 17:21 22,4 C 7,8 C 7,8 C 45 % 4 % 1010 hPa 0,0 l/m 1,0 km/h (0 Bft) 0 min
28.02.2016 17:24 22,4 C 7,8 C 7,7 C 45 % 4 % 1010 hPa 0,0 l/m 9,9 km/h (2 Bft) 0 min
28.02.2016 17:27 22,4 C 7,7 C 7,6 C 45 % 3 % 1010 hPa 0,0 l/m 11,7 km/h (2 Bft) 0 min
28.02.2016 17:30 22,4 C 7,7 C 7,6 C 45 % 3 % 1010 hPa 0,0 l/m 9,4 km/h (2 Bft) 0 min
28.02.2016 17:33 22,3 C 7,6 C 7,6 C 45 % 2 % 1010 hPa 0,0 l/m 7,0 km/h (2 Bft) 0 min
28.02.2016 17:36 22,3 C 7,6 C 7,6 C 45 % 2 % 1010 hPa 0,0 l/m 7,0 km/h (2 Bft) 0 min
28.02.2016 17:39 22,4 C 7,5 C 7,5 C 46 % 1 % 1010 hPa 0,0 l/m 9,8 km/h (2 Bft) 0 min
28.02.2016 17:42 22,4 C 7,5 C 7,3 C 46 % 1 % 1010 hPa 0,0 l/m 1,2 km/h (1 Bft) 0 min
28.02.2016 17:45 22,4 C 7,4 C 7,3 C 46 % 1 % 1010 hPa 0,0 l/m 0,7 km/h (0 Bft) 0 min
28.02.2016 17:48 22,4 C 7,4 C 7,4 C 46 % 1 % 1010 hPa 0,0 l/m 0,9 km/h (0 Bft) 0 min
28.02.2016 17:51 22,3 C 7,4 C 7,3 C 46 % 1 % 1010 hPa 0,0 l/m 1,8 km/h (1 Bft) 0 min
28.02.2016 17:54 22,4 C 7,4 C 7,3 C 47 % 0 % 1010 hPa 0,0 l/m 9,4 km/h (2 Bft) 0 min
28.02.2016 17:57 22,3 C 7,3 C 7,2 C 47 % 0 % 1010 hPa 0,0 l/m 12,0 km/h (2 Bft) 0 min
28.02.2016 18:00 22,3 C 7,3 C 7,2 C 47 % 0 % 1010 hPa 0,0 l/m 10,4 km/h (2 Bft) 0 min
28.02.2016 18:03 22,3 C 7,2 C 7,2 C 47 % 0 % 1010 hPa 0,0 l/m 12,0 km/h (2 Bft) 0 min
28.02.2016 18:06 22,3 C 7,2 C 7,2 C 47 % 0 % 1011 hPa 0,0 l/m 7,8 km/h (2 Bft) 0 min
28.02.2016 18:09 22,3 C 7,2 C 7,2 C 47 % 0 % 1011 hPa 0,0 l/m 11,8 km/h (2 Bft) 0 min
28.02.2016 18:12 22,3 C 7,2 C 7,1 C 48 % 0 % 1011 hPa 0,0 l/m 8,7 km/h (2 Bft) 0 min
28.02.2016 18:15 22,3 C 7,2 C 7,0 C 48 % 0 % 1011 hPa 0,0 l/m 9,4 km/h (2 Bft) 0 min
28.02.2016 18:18 22,3 C 7,2 C 7,1 C 48 % 0 % 1011 hPa 0,0 l/m 7,5 km/h (2 Bft) 0 min
28.02.2016 18:21 22,3 C 7,2 C 7,0 C 48 % 0 % 1011 hPa 0,0 l/m 12,9 km/h (3 Bft) 0 min
28.02.2016 18:24 22,3 C 7,1 C 7,1 C 48 % 0 % 1011 hPa 0,0 l/m 10,1 km/h (2 Bft) 0 min
28.02.2016 18:27 22,3 C 7,1 C 7,0 C 48 % 0 % 1011 hPa 0,0 l/m 7,7 km/h (2 Bft) 0 min
28.02.2016 18:30 22,3 C 7,0 C 7,0 C 48 % 0 % 1011 hPa 0,0 l/m 6,8 km/h (2 Bft) 0 min
28.02.2016 18:33 22,3 C 7,0 C 6,9 C 49 % 0 % 1011 hPa 0,0 l/m 1,2 km/h (1 Bft) 0 min
28.02.2016 18:36 22,3 C 7,0 C 6,9 C 49 % 0 % 1011 hPa 0,0 l/m 13,0 km/h (3 Bft) 0 min
28.02.2016 18:39 22,3 C 6,9 C 6,9 C 49 % 0 % 1011 hPa 0,0 l/m 8,4 km/h (2 Bft) 0 min
28.02.2016 18:42 22,3 C 6,9 C 6,8 C 49 % 0 % 1011 hPa 0,0 l/m 5,6 km/h (1 Bft) 0 min
28.02.2016 18:45 22,3 C 6,9 C 6,8 C 49 % 0 % 1011 hPa 0,0 l/m 0,4 km/h (0 Bft) 0 min
28.02.2016 18:48 22,3 C 6,8 C 6,7 C 50 % 0 % 1011 hPa 0,0 l/m 0,0 km/h (0 Bft) 0 min
28.02.2016 18:51 22,3 C 6,8 C 6,7 C 50 % 0 % 1011 hPa 0,0 l/m 1,5 km/h (1 Bft) 0 min
28.02.2016 18:54 22,3 C 6,8 C 6,6 C 50 % 0 % 1011 hPa 0,0 l/m 0,3 km/h (0 Bft) 0 min
28.02.2016 18:57 22,3 C 6,7 C 6,6 C 50 % 0 % 1011 hPa 0,0 l/m 0,0 km/h (0 Bft) 0 min
28.02.2016 19:00 22,3 C 6,7 C 6,6 C 51 % 0 % 1011 hPa 0,0 l/m 0,0 km/h (0 Bft) 0 min
28.02.2016 19:03 22,3 C 6,6 C 6,6 C 51 % 0 % 1011 hPa 0,0 l/m 0,3 km/h (0 Bft) 0 min
28.02.2016 19:06 22,3 C 6,6 C 6,5 C 51 % 0 % 1012 hPa 0,0 l/m 0,0 km/h (0 Bft) 0 min
28.02.2016 19:09 22,3 C 6,5 C 6,5 C 51 % 0 % 1012 hPa 0,0 l/m 0,3 km/h (0 Bft) 0 min
28.02.2016 19:12 22,3 C 6,6 C 6,3 C 51 % 0 % 1012 hPa 0,0 l/m 0,2 km/h (0 Bft) 0 min
28.02.2016 19:15 22,3 C 6,6 C 6,3 C 51 % 0 % 1012 hPa 0,0 l/m 0,1 km/h (0 Bft) 0 min
28.02.2016 19:18 22,3 C 6,5 C 6,5 C 52 % 0 % 1012 hPa 0,0 l/m 0,3 km/h (0 Bft) 0 min
28.02.2016 19:21 22,3 C 6,4 C 6,4 C 52 % 0 % 1012 hPa 0,0 l/m 5,0 km/h (1 Bft) 0 min
28.02.2016 19:24 22,3 C 6,4 C 6,3 C 53 % 0 % 1012 hPa 0,0 l/m 3,6 km/h (1 Bft) 0 min
28.02.2016 19:27 22,3 C 6,4 C 6,4 C 53 % 0 % 1012 hPa 0,0 l/m 0,6 km/h (0 Bft) 0 min
28.02.2016 19:30 22,3 C 6,4 C 6,4 C 53 % 0 % 1012 hPa 0,0 l/m 0,6 km/h (0 Bft) 0 min
28.02.2016 19:33 22,3 C 6,4 C 6,4 C 53 % 0 % 1012 hPa 0,0 l/m 0,0 km/h (0 Bft) 0 min
28.02.2016 19:36 22,3 C 6,3 C 6,3 C 54 % 0 % 1012 hPa 0,0 l/m 0,2 km/h (0 Bft) 0 min
28.02.2016 19:39 22,3 C 6,2 C 6,3 C 54 % 0 % 1012 hPa 0,0 l/m 1,2 km/h (1 Bft) 0 min
28.02.2016 19:42 22,3 C 6,2 C 6,3 C 55 % 0 % 1012 hPa 0,0 l/m 4,8 km/h (1 Bft) 0 min
28.02.2016 19:45 22,3 C 6,2 C 6,1 C 55 % 0 % 1012 hPa 0,0 l/m 3,2 km/h (1 Bft) 0 min
28.02.2016 19:48 22,3 C 6,2 C 6,2 C 55 % 0 % 1012 hPa 0,0 l/m 1,3 km/h (1 Bft) 0 min
28.02.2016 19:51 22,3 C 6,2 C 6,2 C 55 % 0 % 1012 hPa 0,0 l/m 0,1 km/h (0 Bft) 0 min
28.02.2016 19:54 22,3 C 6,1 C 6,1 C 55 % 0 % 1012 hPa 0,0 l/m 0,0 km/h (0 Bft) 0 min
28.02.2016 19:57 22,2 C 6,0 C 6,1 C 56 % 0 % 1012 hPa 0,0 l/m 0,0 km/h (0 Bft) 0 min
28.02.2016 20:00 22,3 C 6,0 C 6,0 C 56 % 0 % 1012 hPa 0,0 l/m 0,0 km/h (0 Bft) 0 min
28.02.2016 20:03 22,3 C 6,0 C 6,1 C 56 % 0 % 1012 hPa 0,0 l/m 0,0 km/h (0 Bft) 0 min
28.02.2016 20:06 22,2 C 5,9 C 6,0 C 57 % 0 % 1012 hPa 0,0 l/m 0,3 km/h (0 Bft) 0 min
28.02.2016 20:09 22,2 C 5,9 C 6,0 C 57 % 0 % 1012 hPa 0,0 l/m 0,4 km/h (0 Bft) 0 min
28.02.2016 20:12 22,2 C 5,8 C 5,9 C 57 % 0 % 1012 hPa 0,0 l/m 2,4 km/h (1 Bft) 0 min
28.02.2016 20:15 22,2 C 5,7 C 5,9 C 57 % 0 % 1012 hPa 0,0 l/m 2,4 km/h (1 Bft) 0 min
28.02.2016 20:18 22,2 C 5,7 C 5,8 C 57 % 0 % 1012 hPa 0,0 l/m 0,0 km/h (0 Bft) 0 min
28.02.2016 20:21 22,2 C 5,6 C 5,8 C 57 % 0 % 1012 hPa 0,0 l/m 0,0 km/h (0 Bft) 0 min
28.02.2016 20:24 22,2 C 5,6 C 5,8 C 57 % 0 % 1012 hPa 0,0 l/m 0,0 km/h (0 Bft) 0 min
28.02.2016 20:27 22,2 C 5,5 C 5,6 C 57 % 0 % 1012 hPa 0,0 l/m 0,1 km/h (0 Bft) 0 min
28.02.2016 20:30 22,2 C 5,5 C 5,5 C 57 % 0 % 1012 hPa 0,0 l/m 0,0 km/h (0 Bft) 0 min
28.02.2016 20:33 22,2 C 5,4 C 5,6 C 58 % 0 % 1012 hPa 0,0 l/m 0,0 km/h (0 Bft) 0 min
28.02.2016 20:36 22,2 C 5,4 C 5,7 C 58 % 0 % 1012 hPa 0,0 l/m 0,1 km/h (0 Bft) 0 min
28.02.2016 20:39 22,2 C 5,3 C 5,5 C 58 % 0 % 1012 hPa 0,0 l/m 0,3 km/h (0 Bft) 0 min
28.02.2016 20:42 22,2 C 5,2 C 5,5 C 58 % 0 % 1012 hPa 0,0 l/m 0,2 km/h (0 Bft) 0 min
28.02.2016 20:45 22,2 C 5,3 C 5,6 C 58 % 0 % 1012 hPa 0,0 l/m 0,0 km/h (0 Bft) 0 min
28.02.2016 20:48 22,2 C 5,2 C 5,5 C 59 % 0 % 1012 hPa 0,0 l/m 0,6 km/h (0 Bft) 0 min
28.02.2016 20:51 22,2 C 5,2 C 5,5 C 59 % 0 % 1012 hPa 0,0 l/m 0,0 km/h (0 Bft) 0 min
28.02.2016 20:54 22,2 C 5,2 C 5,5 C 59 % 0 % 1011 hPa 0,0 l/m 0,4 km/h (0 Bft) 0 min
28.02.2016 20:57 22,2 C 5,2 C 5,4 C 60 % 0 % 1011 hPa 0,0 l/m 3,3 km/h (1 Bft) 0 min
28.02.2016 21:00 22,2 C 5,1 C 5,4 C 60 % 0 % 1011 hPa 0,0 l/m 3,3 km/h (1 Bft) 0 min
28.02.2016 21:03 22,1 C 5,1 C 5,3 C 60 % 0 % 1012 hPa 0,0 l/m 0,0 km/h (0 Bft) 0 min
28.02.2016 21:06 22,1 C 5,0 C 5,3 C 61 % 0 % 1011 hPa 0,0 l/m 0,0 km/h (0 Bft) 0 min
28.02.2016 21:09 22,1 C 4,9 C 5,3 C 61 % 0 % 1011 hPa 0,0 l/m 0,2 km/h (0 Bft) 0 min
28.02.2016 21:12 22,2 C 4,9 C 5,2 C 61 % 0 % 1011 hPa 0,0 l/m 0,1 km/h (0 Bft) 0 min
28.02.2016 21:15 22,1 C 4,9 C 5,3 C 62 % 0 % 1011 hPa 0,0 l/m 1,9 km/h (1 Bft) 0 min
28.02.2016 21:18 22,1 C 4,8 C 5,2 C 62 % 0 % 1011 hPa 0,0 l/m 3,0 km/h (1 Bft) 0 min
28.02.2016 21:21 22,1 C 4,8 C 5,2 C 62 % 0 % 1011 hPa 0,0 l/m 1,3 km/h (1 Bft) 0 min
28.02.2016 21:24 22,1 C 4,7 C 5,0 C 63 % 0 % 1011 hPa 0,0 l/m 0,0 km/h (0 Bft) 0 min
28.02.2016 21:27 22,1 C 4,7 C 5,0 C 63 % 0 % 1012 hPa 0,0 l/m 0,0 km/h (0 Bft) 0 min
28.02.2016 21:30 22,1 C 4,6 C 4,8 C 63 % 0 % 1012 hPa 0,0 l/m 0,0 km/h (0 Bft) 0 min
28.02.2016 21:33 22,1 C 4,5 C 4,9 C 63 % 0 % 1012 hPa 0,0 l/m 0,0 km/h (0 Bft) 0 min
28.02.2016 21:36 22,1 C 4,4 C 4,6 C 64 % 0 % 1012 hPa 0,0 l/m 0,4 km/h (0 Bft) 0 min
28.02.2016 21:39 22,1 C 4,2 C 4,9 C 64 % 0 % 1012 hPa 0,0 l/m 2,3 km/h (1 Bft) 0 min
28.02.2016 21:42 22,1 C 4,2 C 4,8 C 65 % 0 % 1012 hPa 0,0 l/m 0,5 km/h (0 Bft) 0 min
28.02.2016 21:45 22,1 C 4,1 C 4,8 C 66 % 0 % 1012 hPa 0,0 l/m 0,0 km/h (0 Bft) 0 min
28.02.2016 21:48 22,1 C 4,0 C 4,8 C 66 % 0 % 1012 hPa 0,0 l/m 0,0 km/h (0 Bft) 0 min
28.02.2016 21:51 22,1 C 4,0 C 4,8 C 67 % 0 % 1012 hPa 0,0 l/m 0,0 km/h (0 Bft) 0 min
28.02.2016 21:54 22,1 C 4,0 C 4,5 C 67 % 0 % 1012 hPa 0,0 l/m 0,0 km/h (0 Bft) 0 min
28.02.2016 21:57 22,2 C 3,9 C 4,5 C 68 % 0 % 1012 hPa 0,0 l/m 0,0 km/h (0 Bft) 0 min
28.02.2016 22:00 22,1 C 3,8 C 4,6 C 68 % 0 % 1012 hPa 0,0 l/m 0,4 km/h (0 Bft) 0 min
28.02.2016 22:03 22,1 C 3,7 C 4,6 C 68 % 0 % 1012 hPa 0,0 l/m 0,7 km/h (0 Bft) 0 min
28.02.2016 22:06 22,1 C 3,8 C 4,7 C 69 % 0 % 1012 hPa 0,0 l/m 3,6 km/h (1 Bft) 0 min
28.02.2016 22:09 22,1 C 3,8 C 4,5 C 69 % 0 % 1012 hPa 0,0 l/m 0,3 km/h (0 Bft) 0 min
28.02.2016 22:12 22,1 C 3,8 C 4,4 C 70 % 0 % 1012 hPa 0,0 l/m 0,1 km/h (0 Bft) 0 min
28.02.2016 22:15 22,1 C 3,8 C 4,4 C 70 % 0 % 1012 hPa 0,0 l/m 0,0 km/h (0 Bft) 0 min
28.02.2016 22:18 22,1 C 3,6 C 4,5 C 70 % 0 % 1012 hPa 0,0 l/m 0,0 km/h (0 Bft) 0 min
28.02.2016 22:21 22,1 C 3,3 C 4,0 C 71 % 0 % 1012 hPa 0,0 l/m 0,0 km/h (0 Bft) 0 min
28.02.2016 22:24 22,1 C 3,2 C 4,0 C 71 % 0 % 1012 hPa 0,0 l/m 0,0 km/h (0 Bft) 0 min
28.02.2016 22:27 22,1 C 3,1 C 4,3 C 71 % 0 % 1012 hPa 0,0 l/m 1,0 km/h (0 Bft) 0 min
28.02.2016 22:30 22,1 C 3,1 C 4,3 C 71 % 0 % 1012 hPa 0,0 l/m 0,0 km/h (0 Bft) 0 min
28.02.2016 22:33 22,1 C 3,0 C 4,3 C 72 % 0 % 1012 hPa 0,0 l/m 0,0 km/h (0 Bft) 0 min
28.02.2016 22:36 22,1 C 3,0 C 4,3 C 72 % 0 % 1012 hPa 0,0 l/m 0,0 km/h (0 Bft) 0 min
28.02.2016 22:39 22,1 C 2,9 C 4,3 C 72 % 0 % 1012 hPa 0,0 l/m 0,0 km/h (0 Bft) 0 min
28.02.2016 22:42 22,1 C 2,9 C 4,2 C 73 % 0 % 1012 hPa 0,0 l/m 0,0 km/h (0 Bft) 0 min
28.02.2016 22:45 22,1 C 2,7 C 3,9 C 73 % 0 % 1012 hPa 0,0 l/m 1,5 km/h (1 Bft) 0 min
28.02.2016 22:48 22,1 C 2,6 C 3,7 C 73 % 0 % 1012 hPa 0,0 l/m 0,0 km/h (0 Bft) 0 min
28.02.2016 22:51 22,1 C 2,6 C 3,6 C 73 % 0 % 1012 hPa 0,0 l/m 0,0 km/h (0 Bft) 0 min
28.02.2016 22:54 22,1 C 2,6 C 4,1 C 74 % 0 % 1012 hPa 0,0 l/m 0,1 km/h (0 Bft) 0 min
28.02.2016 22:57 22,1 C 2,5 C 4,1 C 75 % 0 % 1012 hPa 0,0 l/m 0,5 km/h (0 Bft) 0 min
28.02.2016 23:00 22,1 C 2,5 C 4,1 C 75 % 0 % 1012 hPa 0,0 l/m 0,0 km/h (0 Bft) 0 min
28.02.2016 23:03 22,1 C 2,5 C 3,9 C 75 % 0 % 1012 hPa 0,0 l/m 0,0 km/h (0 Bft) 0 min
28.02.2016 23:06 22,1 C 2,5 C 3,6 C 75 % 0 % 1012 hPa 0,0 l/m 0,0 km/h (0 Bft) 0 min
28.02.2016 23:09 22,1 C 2,3 C 3,5 C 76 % 0 % 1012 hPa 0,0 l/m 0,0 km/h (0 Bft) 0 min
28.02.2016 23:12 22,1 C 2,3 C 3,5 C 76 % 0 % 1012 hPa 0,0 l/m 0,0 km/h (0 Bft) 0 min
28.02.2016 23:15 22,1 C 2,3 C 3,7 C 76 % 0 % 1012 hPa 0,0 l/m 0,0 km/h (0 Bft) 0 min
28.02.2016 23:18 22,1 C 2,2 C 3,4 C 76 % 0 % 1012 hPa 0,0 l/m 0,0 km/h (0 Bft) 0 min
28.02.2016 23:21 22,0 C 2,1 C 3,4 C 76 % 0 % 1012 hPa 0,0 l/m 0,0 km/h (0 Bft) 0 min
28.02.2016 23:24 22,1 C 2,1 C 3,6 C 76 % 0 % 1012 hPa 0,0 l/m 0,0 km/h (0 Bft) 0 min
28.02.2016 23:27 22,0 C 2,1 C 3,8 C 76 % 0 % 1012 hPa 0,0 l/m 1,2 km/h (1 Bft) 0 min
28.02.2016 23:30 22,0 C 2,1 C 3,6 C 76 % 0 % 1012 hPa 0,0 l/m 1,2 km/h (1 Bft) 0 min
28.02.2016 23:33 22,0 C 2,1 C 3,7 C 77 % 0 % 1012 hPa 0,0 l/m 3,2 km/h (1 Bft) 0 min
28.02.2016 23:36 22,0 C 2,1 C 3,4 C 77 % 0 % 1012 hPa 0,0 l/m 0,0 km/h (0 Bft) 0 min
28.02.2016 23:39 22,0 C 2,2 C 3,4 C 78 % 0 % 1012 hPa 0,0 l/m 0,0 km/h (0 Bft) 0 min
28.02.2016 23:42 22,0 C 2,1 C 3,6 C 78 % 0 % 1012 hPa 0,0 l/m 0,0 km/h (0 Bft) 0 min
28.02.2016 23:45 22,0 C 2,1 C 3,5 C 78 % 0 % 1012 hPa 0,0 l/m 0,0 km/h (0 Bft) 0 min
28.02.2016 23:48 22,0 C 2,0 C 3,4 C 78 % 0 % 1012 hPa 0,0 l/m 0,1 km/h (0 Bft) 0 min
28.02.2016 23:51 22,0 C 2,0 C 3,6 C 78 % 0 % 1012 hPa 0,0 l/m 0,6 km/h (0 Bft) 0 min
28.02.2016 23:54 22,0 C 2,0 C 3,4 C 79 % 0 % 1012 hPa 0,0 l/m 0,0 km/h (0 Bft) 0 min
28.02.2016 23:57 22,0 C 2,0 C 3,4 C 79 % 0 % 1012 hPa 0,0 l/m 0,0 km/h (0 Bft) 0 min
_ Min-Zeit 10:18 03:33 01:56 15:39 - 00:02 - 00:02 -
Minimum _ 20,9 C -1,7 C -0,1 C 37 % - 1009 hPa - 0,0 km/h (0 Bft) -
_ Max-Zeit 16:24 15:24 15:33 23:54 11:18 19:06 00:02 15:45 10:30
Maximum _ 22,6 C 10,8 C 9,3 C 79 % 81 % 1012 hPa 0,0 l/m 17,3 km/h
O-SO (3 Bft)
3 min
Durchschnitt _ 22,2 C 4,0 C 4,1 C 59 % #2:24 h 1010 hPa #0,0 l/m 1,8 km/h (1 Bft) #2:24 h